Time,TemperatureF,DewpointF,PressureIn,WindDirection,WindDirectionDegrees,WindSpeedMPH,WindSpeedGustMPH,Humidity,HourlyPrecipIn,Conditions,Clouds,dailyrainin,SoftwareType,DateUTC
2013-05-26 00:11:00,58.8,57.0,30.15,NE,45,0.0,0.0,93,0.00,,,0.00,weatherlink.com 1.10,2013-05-26 05:11:00,
2013-05-26 00:26:00,58.1,56.0,30.14,NE,46,0.0,0.0,94,0.00,,,0.00,weatherlink.com 1.10,2013-05-26 05:26:00,
2013-05-26 00:41:00,57.6,56.0,30.14,NE,45,0.0,0.0,94,0.00,,,0.00,weatherlink.com 1.10,2013-05-26 05:41:00,
2013-05-26 00:57:00,57.4,56.0,30.14,NE,46,0.0,0.0,95,0.00,,,0.00,weatherlink.com 1.10,2013-05-26 05:57:00,
2013-05-26 01:12:00,57.1,56.0,30.13,NE,47,0.0,0.0,95,0.00,,,0.00,weatherlink.com 1.10,2013-05-26 06:12:00,
2013-05-26 01:26:00,56.9,56.0,30.13,NE,47,0.0,0.0,96,0.00,,,0.00,weatherlink.com 1.10,2013-05-26 06:26:00,
2013-05-26 01:41:00,56.8,56.0,30.13,NE,47,0.0,0.0,96,0.00,,,0.00,weatherlink.com 1.10,2013-05-26 06:41:00,
2013-05-26 01:56:00,57.2,56.0,30.12,SSE,159,0.0,1.0,96,0.00,,,0.00,weatherlink.com 1.10,2013-05-26 06:56:00,
2013-05-26 02:11:00,57.1,56.0,30.12,SSE,160,0.0,0.0,96,0.00,,,0.00,weatherlink.com 1.10,2013-05-26 07:11:00,
2013-05-26 02:27:00,56.9,56.0,30.12,SSE,159,0.0,0.0,96,0.00,,,0.00,weatherlink.com 1.10,2013-05-26 07:27:00,
2013-05-26 02:41:00,56.6,56.0,30.12,SSE,159,0.0,0.0,96,0.00,,,0.00,weatherlink.com 1.10,2013-05-26 07:41:00,
2013-05-26 02:57:00,56.7,56.0,30.12,SSE,158,0.0,0.0,97,0.00,,,0.00,weatherlink.com 1.10,2013-05-26 07:57:00,
2013-05-26 03:11:00,56.1,55.0,30.12,SSE,158,0.0,0.0,96,0.00,,,0.00,weatherlink.com 1.10,2013-05-26 08:11:00,
2013-05-26 03:27:00,55.9,55.0,30.13,SSE,158,0.0,0.0,96,0.00,,,0.00,weatherlink.com 1.10,2013-05-26 08:27:00,
2013-05-26 03:42:00,56.0,55.0,30.13,SSE,158,0.0,0.0,97,0.00,,,0.00,weatherlink.com 1.10,2013-05-26 08:42:00,
2013-05-26 03:56:00,56.0,55.0,30.13,SSE,158,0.0,0.0,97,0.00,,,0.00,weatherlink.com 1.10,2013-05-26 08:56:00,
2013-05-26 04:11:00,56.0,55.0,30.13,SSE,158,0.0,0.0,97,0.00,,,0.00,weatherlink.com 1.10,2013-05-26 09:11:00,
2013-05-26 04:26:00,56.0,55.0,30.14,SSE,158,0.0,0.0,97,0.00,,,0.00,weatherlink.com 1.10,2013-05-26 09:26:00,
2013-05-26 04:42:00,56.4,56.0,30.13,NNW,337,2.0,2.0,97,0.00,,,0.00,weatherlink.com 1.10,2013-05-26 09:42:00,
2013-05-26 04:56:00,56.3,56.0,30.14,North,360,0.0,0.0,97,0.00,,,0.00,weatherlink.com 1.10,2013-05-26 09:56:00,
2013-05-26 05:12:00,56.3,56.0,30.15,North,360,0.0,0.0,97,0.00,,,0.00,weatherlink.com 1.10,2013-05-26 10:12:00,
2013-05-26 05:26:00,56.3,56.0,30.15,North,360,0.0,1.0,97,0.00,,,0.00,weatherlink.com 1.10,2013-05-26 10:26:00,
2013-05-26 05:42:00,56.3,56.0,30.16,North,358,0.0,1.0,97,0.00,,,0.00,weatherlink.com 1.10,2013-05-26 10:42:00,
2013-05-26 05:56:00,56.7,56.0,30.16,North,359,0.0,0.0,97,0.00,,,0.00,weatherlink.com 1.10,2013-05-26 10:56:00,
2013-05-26 06:11:00,57.1,56.0,30.16,North,358,0.0,0.0,97,0.00,,,0.00,weatherlink.com 1.10,2013-05-26 11:11:00,
2013-05-26 06:26:00,57.6,57.0,30.17,North,359,0.0,0.0,97,0.00,,,0.00,weatherlink.com 1.10,2013-05-26 11:26:00,
2013-05-26 06:41:00,59.5,59.0,30.17,North,356,0.0,3.0,97,0.00,,,0.00,weatherlink.com 1.10,2013-05-26 11:41:00,
2013-05-26 06:57:00,61.3,60.0,30.17,NNE,13,1.0,1.0,94,0.00,,,0.00,weatherlink.com 1.10,2013-05-26 11:57:00,
2013-05-26 07:11:00,63.0,60.0,30.18,NNE,12,0.0,2.0,91,0.00,,,0.00,weatherlink.com 1.10,2013-05-26 12:11:00,
2013-05-26 07:26:00,64.8,62.0,30.18,North,356,0.0,0.0,89,0.00,,,0.00,weatherlink.com 1.10,2013-05-26 12:26:00,
2013-05-26 07:41:00,66.2,62.0,30.18,North,6,0.0,0.0,86,0.00,,,0.00,weatherlink.com 1.10,2013-05-26 12:41:00,
2013-05-26 07:57:00,68.2,64.0,30.19,North,9,0.0,0.0,86,0.00,,,0.00,weatherlink.com 1.10,2013-05-26 12:57:00,
2013-05-26 08:12:00,72.2,64.0,30.20,North,8,0.0,0.0,75,0.00,,,0.00,weatherlink.com 1.10,2013-05-26 13:12:00,
2013-05-26 08:27:00,76.1,65.0,30.20,NE,50,0.0,0.0,69,0.00,,,0.00,weatherlink.com 1.10,2013-05-26 13:27:00,
2013-05-26 08:42:00,78.1,64.0,30.20,East,97,0.0,1.0,63,0.00,,,0.00,weatherlink.com 1.10,2013-05-26 13:42:00,
2013-05-26 08:58:00,80.8,66.0,30.20,NNW,335,0.0,1.0,60,0.00,,,0.00,weatherlink.com 1.10,2013-05-26 13:58:00,
2013-05-26 09:12:00,82.0,66.0,30.20,SSE,150,2.0,3.0,58,0.00,,,0.00,weatherlink.com 1.10,2013-05-26 14:12:00,
2013-05-26 09:27:00,79.7,65.0,30.20,East,88,2.0,4.0,61,0.00,,,0.00,weatherlink.com 1.10,2013-05-26 14:27:00,
2013-05-26 09:42:00,80.4,63.0,30.21,SE,129,2.0,4.0,55,0.00,,,0.00,weatherlink.com 1.10,2013-05-26 14:42:00,
2013-05-26 09:58:00,80.7,62.0,30.21,ESE,115,1.0,6.0,53,0.00,,,0.00,weatherlink.com 1.10,2013-05-26 14:58:00,
2013-05-26 10:13:00,81.2,61.0,30.21,SSE,152,1.0,6.0,50,0.00,,,0.00,weatherlink.com 1.10,2013-05-26 15:13:00,
2013-05-26 10:27:00,82.3,61.0,30.21,SSW,193,4.0,7.0,49,0.00,,,0.00,weatherlink.com 1.10,2013-05-26 15:27:00,
2013-05-26 10:42:00,82.4,60.0,30.21,ESE,106,1.0,6.0,46,0.00,,,0.00,weatherlink.com 1.10,2013-05-26 15:42:00,
2013-05-26 10:57:00,82.8,59.0,30.20,ENE,72,2.0,5.0,45,0.00,,,0.00,weatherlink.com 1.10,2013-05-26 15:57:00,
2013-05-26 11:12:00,82.8,60.0,30.20,South,183,1.0,5.0,46,0.00,,,0.00,weatherlink.com 1.10,2013-05-26 16:12:00,
2013-05-26 11:27:00,83.6,61.0,30.19,ENE,70,1.0,6.0,46,0.00,,,0.00,weatherlink.com 1.10,2013-05-26 16:27:00,
2013-05-26 11:43:00,84.5,58.0,30.18,South,181,2.0,4.0,41,0.00,,,0.00,weatherlink.com 1.10,2013-05-26 16:43:00,
2013-05-26 11:57:00,84.9,61.0,30.18,SW,222,0.0,5.0,44,0.00,,,0.00,weatherlink.com 1.10,2013-05-26 16:57:00,
2013-05-26 12:13:00,84.9,61.0,30.18,SSE,148,1.0,5.0,44,0.00,,,0.00,weatherlink.com 1.10,2013-05-26 17:13:00,
2013-05-26 12:27:00,85.1,61.0,30.17,SSE,157,1.0,5.0,45,0.00,,,0.00,weatherlink.com 1.10,2013-05-26 17:27:00,
2013-05-26 12:42:00,85.4,62.0,30.16,WSW,248,1.0,4.0,46,0.00,,,0.00,weatherlink.com 1.10,2013-05-26 17:42:00,
2013-05-26 12:57:00,87.3,61.0,30.16,SSW,212,0.0,3.0,42,0.00,,,0.00,weatherlink.com 1.10,2013-05-26 17:57:00,
2013-05-26 13:12:00,87.1,61.0,30.15,ENE,65,1.0,6.0,41,0.00,,,0.00,weatherlink.com 1.10,2013-05-26 18:12:00,
2013-05-26 13:27:00,87.2,61.0,30.15,SSE,159,0.0,7.0,41,0.00,,,0.00,weatherlink.com 1.10,2013-05-26 18:27:00,
2013-05-26 13:42:00,87.9,61.0,30.14,NNW,337,2.0,6.0,40,0.00,,,0.00,weatherlink.com 1.10,2013-05-26 18:42:00,
2013-05-26 13:58:00,88.9,59.0,30.14,East,97,3.0,4.0,37,0.00,,,0.00,weatherlink.com 1.10,2013-05-26 18:58:00,
2013-05-26 14:12:00,88.2,60.0,30.14,East,97,4.0,6.0,39,0.00,,,0.00,weatherlink.com 1.10,2013-05-26 19:12:00,
2013-05-26 14:27:00,89.2,61.0,30.13,South,174,1.0,6.0,39,0.00,,,0.00,weatherlink.com 1.10,2013-05-26 19:27:00,
2013-05-26 14:42:00,89.5,61.0,30.13,North,356,3.0,6.0,38,0.00,,,0.00,weatherlink.com 1.10,2013-05-26 19:42:00,
2013-05-26 14:57:00,89.6,62.0,30.12,South,187,0.0,4.0,39,0.00,,,0.00,weatherlink.com 1.10,2013-05-26 19:57:00,
2013-05-26 15:12:00,89.3,60.0,30.12,NNW,333,2.0,5.0,38,0.00,,,0.00,weatherlink.com 1.10,2013-05-26 20:12:00,
2013-05-26 15:28:00,90.3,61.0,30.11,SE,143,0.0,5.0,37,0.00,,,0.00,weatherlink.com 1.10,2013-05-26 20:28:00,
2013-05-26 15:43:00,91.0,61.0,30.11,WSW,252,1.0,3.0,36,0.00,,,0.00,weatherlink.com 1.10,2013-05-26 20:43:00,
2013-05-26 15:58:00,89.9,63.0,30.11,ESE,107,1.0,5.0,40,0.00,,,0.00,weatherlink.com 1.10,2013-05-26 20:58:00,
2013-05-26 16:14:00,88.3,64.0,30.11,ESE,110,1.0,2.0,45,0.00,,,0.00,weatherlink.com 1.10,2013-05-26 21:14:00,
2013-05-26 16:28:00,88.1,62.0,30.10,North,359,1.0,1.0,41,0.00,,,0.00,weatherlink.com 1.10,2013-05-26 21:28:00,
2013-05-26 16:43:00,89.6,64.0,30.10,South,179,0.0,3.0,42,0.00,,,0.00,weatherlink.com 1.10,2013-05-26 21:43:00,
2013-05-26 16:58:00,89.5,62.0,30.10,ESE,115,0.0,3.0,40,0.00,,,0.00,weatherlink.com 1.10,2013-05-26 21:58:00,
2013-05-26 17:13:00,90.2,62.0,30.09,South,170,0.0,2.0,39,0.00,,,0.00,weatherlink.com 1.10,2013-05-26 22:13:00,
2013-05-26 17:29:00,89.8,63.0,30.09,SSE,165,1.0,2.0,41,0.00,,,0.00,weatherlink.com 1.10,2013-05-26 22:29:00,
2013-05-26 17:43:00,90.4,62.0,30.09,ESE,119,2.0,4.0,39,0.00,,,0.00,weatherlink.com 1.10,2013-05-26 22:43:00,
2013-05-26 17:58:00,88.2,62.0,30.09,SSE,153,1.0,3.0,42,0.00,,,0.00,weatherlink.com 1.10,2013-05-26 22:58:00,
2013-05-26 18:14:00,86.5,65.0,30.09,SSW,198,3.0,10.0,48,0.00,,,0.00,weatherlink.com 1.10,2013-05-26 23:14:00,
2013-05-26 18:28:00,84.4,67.0,30.09,SSW,206,0.0,5.0,56,0.00,,,0.00,weatherlink.com 1.10,2013-05-26 23:28:00,
2013-05-26 18:43:00,83.3,67.0,30.09,SSW,205,0.0,7.0,59,0.00,,,0.00,weatherlink.com 1.10,2013-05-26 23:43:00,
2013-05-26 18:59:00,82.2,67.0,30.09,SE,143,0.0,3.0,61,0.00,,,0.00,weatherlink.com 1.10,2013-05-26 23:59:00,
2013-05-26 19:14:00,81.3,68.0,30.10,ESE,114,0.0,1.0,64,0.00,,,0.00,weatherlink.com 1.10,2013-05-27 00:14:00,
2013-05-26 19:28:00,79.5,68.0,30.10,South,174,0.0,1.0,69,0.00,,,0.00,weatherlink.com 1.10,2013-05-27 00:28:00,
2013-05-26 19:43:00,77.8,68.0,30.10,South,169,0.0,0.0,72,0.00,,,0.00,weatherlink.com 1.10,2013-05-27 00:43:00,
2013-05-26 19:58:00,76.3,68.0,30.10,SSE,168,0.0,0.0,75,0.00,,,0.00,weatherlink.com 1.10,2013-05-27 00:58:00,
2013-05-26 20:13:00,74.7,68.0,30.10,SE,134,0.0,0.0,79,0.00,,,0.00,weatherlink.com 1.10,2013-05-27 01:13:00,
2013-05-26 20:28:00,74.3,67.0,30.10,ESE,104,0.0,0.0,79,0.00,,,0.00,weatherlink.com 1.10,2013-05-27 01:28:00,
2013-05-26 20:44:00,73.2,67.0,30.11,ESE,106,0.0,0.0,81,0.00,,,0.00,weatherlink.com 1.10,2013-05-27 01:44:00,
2013-05-26 20:59:00,73.0,67.0,30.11,SE,138,0.0,0.0,81,0.00,,,0.00,weatherlink.com 1.10,2013-05-27 01:59:00,
2013-05-26 21:14:00,73.3,67.0,30.11,SE,134,0.0,0.0,80,0.00,,,0.00,weatherlink.com 1.10,2013-05-27 02:14:00,
2013-05-26 21:29:00,73.7,67.0,30.12,SSE,155,0.0,0.0,79,0.00,,,0.00,weatherlink.com 1.10,2013-05-27 02:29:00,
2013-05-26 21:44:00,73.5,67.0,30.13,SE,124,0.0,0.0,79,0.00,,,0.00,weatherlink.com 1.10,2013-05-27 02:44:00,
2013-05-26 21:58:00,73.0,67.0,30.13,SSW,195,0.0,0.0,80,0.00,,,0.00,weatherlink.com 1.10,2013-05-27 02:58:00,
2013-05-26 22:13:00,72.5,67.0,30.13,SSE,159,0.0,0.0,82,0.00,,,0.00,weatherlink.com 1.10,2013-05-27 03:13:00,
2013-05-26 22:29:00,71.5,66.0,30.14,SSE,158,0.0,0.0,83,0.00,,,0.00,weatherlink.com 1.10,2013-05-27 03:29:00,
2013-05-26 22:44:00,69.7,66.0,30.14,SSE,158,0.0,0.0,88,0.00,,,0.00,weatherlink.com 1.10,2013-05-27 03:44:00,
2013-05-26 22:58:00,69.0,66.0,30.14,SSE,158,0.0,0.0,89,0.00,,,0.00,weatherlink.com 1.10,2013-05-27 03:58:00,
2013-05-26 23:13:00,68.5,66.0,30.14,SSE,164,0.0,0.0,90,0.00,,,0.00,weatherlink.com 1.10,2013-05-27 04:13:00,
2013-05-26 23:29:00,68.1,66.0,30.13,SSE,163,0.0,0.0,92,0.00,,,0.00,weatherlink.com 1.10,2013-05-27 04:29:00,
2013-05-26 23:44:00,68.0,66.0,30.13,SSE,152,0.0,0.0,92,0.00,,,0.00,weatherlink.com 1.10,2013-05-27 04:44:00,
2013-05-26 23:59:00,67.2,65.0,30.13,SSE,152,0.0,0.0,93,0.00,,,0.00,weatherlink.com 1.10,2013-05-27 04:59:00,